Temp
16 15 15 16 16 16 16 16 16 16 15 15 14 13 12 12 12 13 13 13 12 13 13 13 12 11 12 12 11 11 12 12 11
15 15 15 15 16 16 16 16 16 16 15 15 15 13 13 13 13 13 13 13 12 13 13 12 13 13 12 11 11 12 12 13 12
15 15 15 15 15 16 16 16 16 15 15 15 14 14 14 13 13 13 13 12 13 13 12 12 13 13 13 13 13 13 13 12 13
15 15 15 15 15 16 16 16 16 15 15 14 14 14 14 14 14 14 14 15 14 14 14 14 14 14 14 13 13 13 13 12 12
15 15 15 15 15 15 16 16 16 15 15 14 14 14 14 14 14 14 14 15 15 15 14 14 14 14 14 13 13 13 13 13 12
16 16 15 15 15 16 16 16 16 15 15 14 14 14 14 15 15 15 15 15 15 15 15 14 14 14 14 14 13 13 13 13 12
15 16 15 15 14 15 15 16 16 16 15 15 14 14 14 15 15 14 15 15 15 15 15 14 14 14 14 14 13 13 13 13 12
15 15 15 16 15 14 15 16 16 16 15 15 14 14 14 14 14 14 14 15 15 15 15 15 14 14 14 14 13 13 13 12 12
15 15 15 16 16 15 15 15 16 16 15 15 14 14 14 14 14 14 14 15 15 15 15 15 14 14 14 14 13 13 13 12 12
15 15 15 16 15 15 15 15 15 15 15 15 15 14 13 14 14 14 14 14 15 15 15 15 14 14 14 13 13 13 13 12 12
15 15 15 15 15 15 15 15 15 15 15 15 15 14 13 13 13 14 14 14 14 15 15 14 14 14 14 14 13 13 13 12 12
14 14 15 15 15 15 15 14 14 14 15 15 14 14 13 13 14 14 14 14 14 14 15 15 14 14 14 14 14 13 12 12 12
14 14 14 15 15 15 14 14 14 14 14 14 14 14 13 13 13 13 14 14 14 14 14 14 14 14 14 14 14 13 13 13 13
14 14 14 14 15 15 14 14 14 14 14 14 14 14 13 13 13 13 13 14 14 14 14 14 14 14 14 14 14 14 13 13 13
13 14 14 14 14 14 14 14 14 14 14 13 14 13 13 13 13 13 13 14 14 14 14 14 14 14 14 14 14 14 14 13 13
12 13 13 14 14 14 14 14 14 14 14 13 13 13 13 13 13 13 13 13 14 14 14 14 14 14 14 14 14 14 13 13 13
13 12 13 13 13 14 14 14 14 14 14 13 13 13 13 13 13 13 13 13 13 14 14 14 14 14 14 14 14 14 14 13 13
12 12 12 12 13 13 13 13 13 13 14 13 13 12 13 13 14 14 14 14 14 14 14 14 14 14 14 14 14 14 14 14 13
12 12 12 12 12 12 13 13 13 13 13 13 13 13 14 13 13 14 15 14 14 14 15 14 14 14 14 14 14 14 14 14 13
10 11 12 11 12 12 12 13 13 13 13 13 13 11 13 13 13 14 14 14 15 15 15 15 14 14 13 14 14 13 13 13 13
Height
1557 1557 1558 1558 1559 1559 1559 1558 1558 1558 1558 1558 1558 1558 1558 1559 1559 1559 1560 1560 1560 1559 1559 1557 1557 1556 1555 1554 1554 1553 1552 1552 1551
1557 1558 1558 1559 1559 1559 1559 1559 1559 1559 1558 1558 1558 1559 1559 1559 1560 1560 1560 1561 1561 1561 1561 1560 1558 1558 1557 1557 1556 1555 1554 1553 1552
1557 1557 1558 1559 1559 1559 1559 1559 1559 1560 1560 1560 1559 1559 1560 1560 1561 1561 1561 1561 1561 1561 1562 1561 1560 1559 1559 1558 1558 1557 1556 1555 1554
1557 1558 1558 1558 1558 1559 1559 1559 1560 1560 1560 1561 1561 1561 1561 1561 1561 1561 1561 1561 1562 1562 1562 1562 1561 1560 1560 1559 1559 1558 1558 1557 1556
1557 1557 1558 1558 1558 1558 1559 1559 1560 1561 1561 1561 1562 1562 1562 1562 1562 1562 1562 1562 1562 1563 1563 1563 1562 1561 1561 1561 1560 1559 1559 1558 1557
1556 1556 1557 1559 1559 1558 1558 1559 1560 1560 1561 1561 1562 1562 1562 1562 1562 1563 1563 1563 1563 1563 1563 1563 1563 1562 1561 1561 1561 1560 1559 1559 1558
1554 1555 1556 1557 1558 1558 1558 1558 1559 1560 1560 1561 1561 1562 1562 1562 1562 1562 1563 1563 1564 1563 1563 1563 1563 1562 1562 1561 1561 1560 1560 1559 1558
1552 1553 1553 1554 1556 1557 1557 1557 1558 1559 1559 1560 1561 1561 1561 1562 1562 1562 1563 1563 1563 1563 1563 1563 1562 1562 1561 1561 1561 1560 1560 1559 1558
1549 1550 1551 1551 1552 1554 1555 1556 1556 1557 1558 1558 1560 1560 1560 1561 1561 1561 1562 1562 1563 1563 1563 1562 1562 1562 1561 1561 1560 1560 1559 1558 1558
1546 1547 1548 1548 1549 1551 1553 1554 1554 1555 1556 1556 1557 1558 1559 1559 1560 1560 1561 1561 1562 1562 1562 1561 1561 1560 1560 1560 1560 1559 1558 1558 1557
1542 1543 1544 1545 1546 1547 1549 1551 1552 1553 1554 1555 1555 1556 1557 1558 1559 1559 1560 1560 1560 1560 1560 1560 1559 1559 1559 1558 1558 1558 1557 1557 1556
1537 1538 1539 1540 1542 1544 1545 1547 1548 1549 1550 1552 1554 1554 1555 1555 1556 1556 1557 1558 1558 1557 1557 1557 1557 1557 1557 1556 1556 1556 1555 1555 1554
1532 1533 1534 1536 1537 1538 1540 1542 1543 1545 1546 1547 1549 1550 1552 1553 1553 1553 1554 1554 1555 1555 1555 1555 1554 1554 1554 1554 1554 1554 1553 1552 1551
1527 1527 1528 1530 1532 1534 1536 1537 1539 1540 1542 1543 1545 1547 1547 1549 1550 1550 1550 1551 1551 1551 1552 1551 1551 1551 1551 1551 1550 1550 1549 1549 1548
1521 1521 1523 1525 1527 1528 1530 1531 1534 1535 1537 1540 1540 1542 1544 1545 1545 1546 1546 1546 1546 1547 1547 1548 1547 1548 1548 1548 1547 1547 1546 1545 1545
1513 1515 1516 1518 1519 1522 1523 1526 1528 1529 1532 1536 1536 1536 1538 1539 1540 1541 1541 1540 1541 1541 1542 1543 1543 1544 1544 1544 1544 1543 1543 1542 1541
1505 1508 1510 1511 1513 1515 1517 1519 1522 1523 1526 1528 1530 1531 1532 1531 1532 1533 1534 1534 1535 1535 1536 1537 1537 1538 1539 1539 1540 1539 1539 1538 1538
1496 1499 1503 1505 1507 1507 1511 1513 1515 1516 1518 1520 1523 1523 1522 1523 1524 1524 1525 1526 1528 1529 1530 1530 1531 1532 1533 1534 1534 1534 1534 1534 1533
1487 1490 1494 1496 1500 1502 1503 1507 1507 1510 1509 1513 1513 1514 1516 1516 1518 1517 1517 1520 1521 1522 1523 1524 1524 1525 1526 1527 1529 1529 1529 1528 1528
1478 1481 1484 1488 1491 1493 1496 1499 1500 1502 1504 1501 1506 1500 1507 1511 1513 1512 1512 1513 1514 1514 1515 1517 1518 1518 1519 1520 1522 1523 1523 1523 1523
Wind_Speed
7 10 11 8 6 5 5 6 6 8 8 9 8 8 8 7 7 7 9 12 10 9 8 9 12 12 13 13 14 15 15 15 15
7 8 8 6 5 5 5 5 6 8 8 7 6 8 7 8 5 4 6 7 6 9 8 7 9 10 11 12 13 15 14 15 15
10 8 7 6 4 3 4 5 7 9 9 7 6 6 8 6 3 4 5 7 5 6 8 6 7 7 9 9 12 12 13 13 15
10 8 8 7 5 3 3 5 7 9 9 9 7 6 5 4 5 4 4 6 5 5 4 4 4 5 7 8 9 10 12 12 13
11 10 10 9 7 4 3 4 7 8 9 10 7 6 5 5 6 5 2 3 5 4 3 3 3 3 4 5 6 7 8 10 11
12 13 11 11 9 6 5 5 7 8 10 12 10 8 6 7 5 3 1 2 2 3 2 1 2 2 2 3 3 4 5 7 8
14 13 14 13 12 10 7 7 8 9 10 12 12 11 8 6 5 2 2 2 3 2 2 1 0 1 1 1 1 2 3 5 6
17 15 18 16 16 15 12 11 10 10 11 12 14 12 11 8 5 4 4 5 5 4 3 3 3 2 2 2 2 3 3 4 6
20 19 19 20 18 17 15 12 12 12 12 14 16 14 13 11 8 6 7 7 7 7 6 5 5 5 5 4 4 4 5 5 7
23 23 21 21 21 20 18 16 15 15 15 15 18 17 16 15 12 9 10 9 10 9 8 8 7 7 7 7 7 6 6 7 9
27 26 25 24 22 21 21 19 18 17 18 18 17 19 18 17 16 13 13 12 12 12 11 11 10 9 9 9 9 8 8 10 11
31 30 29 28 26 23 23 22 21 20 21 21 20 19 18 20 19 17 18 16 15 14 15 13 12 12 11 11 10 9 11 12 12
34 35 34 31 30 27 28 26 24 24 23 23 22 21 20 20 20 22 21 20 19 18 17 15 14 13 13 12 11 11 12 12 12
33 37 38 35 33 32 31 30 28 27 25 25 24 22 23 23 24 24 25 23 22 21 20 18 16 14 14 14 14 13 13 13 13
33 36 36 37 39 37 35 34 32 31 28 24 25 25 26 27 28 27 25 25 23 22 21 20 19 17 16 15 15 15 15 15 14
35 34 38 38 39 39 39 37 36 34 30 27 29 29 29 30 32 31 30 29 28 26 25 23 22 20 19 18 17 16 16 16 16
40 36 35 39 40 40 41 40 40 37 35 35 33 28 33 36 35 35 35 34 31 31 29 27 26 24 22 19 18 18 18 17 17
42 41 37 37 37 41 40 43 41 41 41 40 31 15 19 22 33 39 38 37 35 34 33 31 29 28 25 23 21 19 19 18 19
38 43 42 38 38 39 40 41 45 43 44 44 46 40 24 17 15 23 30 36 37 37 35 34 32 31 29 27 25 23 21 21 21
34 34 41 44 40 38 38 38 44 42 45 45 44 48 43 35 28 24 24 25 29 29 32 33 34 32 31 27 23 21 19 19 22
Wind_Direction
144 140 145 141 134 122 108 106 121 132 129 132 125 116 111 108 106 105 112 110 103 97 73 76 86 83 81 74 78 71 78 79 66
177 162 158 145 132 126 121 122 134 141 143 137 121 116 113 97 111 138 138 130 134 106 91 72 78 77 81 80 73 79 70 68 63
189 181 176 171 154 134 127 133 146 151 156 151 141 134 125 102 56 146 139 132 139 138 128 92 80 77 81 76 72 74 69 66 57
189 197 193 191 186 164 148 144 154 159 166 163 158 141 127 103 101 118 161 155 140 129 137 90 84 78 75 69 71 66 64 59 54
202 210 211 206 200 198 186 167 166 169 174 176 177 171 163 138 122 108 124 133 141 132 122 103 88 74 68 70 69 63 57 53 49
225 223 221 225 224 222 214 197 184 181 180 185 187 194 185 160 150 130 124 168 162 152 137 110 86 65 54 59 61 50 40 36 35
231 234 226 226 236 234 224 212 200 196 194 195 194 194 200 191 172 185 196 211 225 204 188 205 217 23 11 359 8 6 7 12 17
228 231 227 231 232 237 231 221 213 208 206 204 201 204 216 214 207 222 239 231 238 241 237 244 253 269 290 304 313 322 327 342 349
233 235 232 232 238 240 239 234 226 219 215 211 208 212 223 228 229 230 249 245 246 253 254 257 264 270 277 283 292 299 306 315 324
237 237 237 235 236 239 244 238 234 230 225 219 214 212 222 236 237 239 252 252 251 255 261 265 267 268 270 276 280 286 294 307 314
241 239 238 237 236 238 245 244 242 240 233 226 222 217 221 236 243 248 253 257 259 258 259 262 267 269 270 270 276 282 291 306 310
242 242 241 240 240 241 243 242 240 239 238 232 228 225 221 235 243 249 254 256 258 261 261 262 265 270 272 270 271 278 291 295 296
245 242 243 243 243 240 243 241 240 238 234 236 234 233 232 237 248 253 254 257 259 261 263 264 265 267 270 272 268 267 273 281 289
250 247 245 246 247 246 244 244 241 237 234 233 235 239 241 241 247 255 256 257 260 261 262 262 263 265 269 269 270 272 279 280 288
252 252 250 249 249 247 246 243 241 243 241 239 243 240 246 245 246 253 256 256 258 259 260 261 261 265 267 268 271 272 276 281 283
244 251 253 249 248 247 248 244 241 241 244 241 245 244 245 246 248 252 254 255 257 259 261 261 263 264 268 268 268 271 272 277 279
243 244 251 255 253 251 247 247 243 240 237 231 235 242 246 247 245 248 249 253 255 259 259 261 264 266 266 268 268 267 270 272 276
241 242 244 251 253 254 253 251 246 242 239 232 228 222 233 251 252 248 248 250 252 256 258 260 263 265 265 266 267 266 269 270 268
245 241 241 246 251 249 254 252 251 246 243 240 233 233 240 235 253 253 252 252 254 256 256 259 260 261 262 264 267 271 271 267 268
251 245 243 242 246 252 250 251 255 256 251 247 244 227 234 242 247 263 258 253 256 257 257 258 258 258 260 263 264 269 273 267 264